DateTimeUTC,F1_A11,F1_S11,BsB_S11,BsG_S11,BsR_S11,BbsB_S11,BbsG_S11,BbsR_S11,BaB_A11,BaG_A11,BaR_A11,Tu_S11,T_S11,Uu_S11,U_S11,P_S11,T1_A11
2021-07-29T21:00:00Z,00040200,20000000,,,,,,,-000.24,-000.01,0000.11,20.6,27.1,08.0,05.4,0685.9,31.3
2021-07-29T21:01:00Z,00040200,20000000,,,,,,,-000.11,-000.09,0000.05,20.6,27.1,08.0,05.4,0685.9,31.3
2021-07-29T21:02:00Z,00040200,20000000,,,,,,,0000.22,0000.14,-000.31,20.6,27.1,08.0,05.4,0685.9,31.3
2021-07-29T21:03:00Z,00040200,60000000,,,,,,,0000.63,0000.60,0000.57,20.6,27.1,08.0,05.4,0685.9,31.3
2021-07-29T21:04:00Z,00040200,40000000,0004.55,0003.60,0001.93,0001.28,0000.49,0000.41,0001.05,0000.99,0000.71,20.7,26.9,08.0,05.5,0686.8,31.3
2021-07-29T21:05:00Z,00040200,00000000,0004.40,0003.36,0002.02,0001.27,0000.31,-000.02,0001.41,0000.98,0000.98,20.8,26.8,08.1,05.6,0686.9,31.3
2021-07-29T21:06:00Z,00040200,00000000,0005.31,0003.40,0002.30,0000.51,0000.29,0000.40,0001.25,0001.14,0000.82,20.7,26.8,08.2,05.7,0686.9,31.3
2021-07-29T21:07:00Z,00040200,00000000,0003.63,0003.46,0001.95,0001.02,0000.18,0000.70,0000.98,0001.21,0000.89,20.7,26.8,08.3,05.8,0686.9,31.3
2021-07-29T21:08:00Z,00040200,00000000,0004.42,0003.80,0002.04,0001.11,0000.36,0000.39,0001.61,0000.89,0001.14,20.7,26.8,08.6,05.9,0686.9,31.3
2021-07-29T21:09:00Z,00040200,00000000,0005.04,0003.19,0002.03,0001.22,0000.22,-000.05,0000.19,0000.26,0000.18,20.7,26.8,08.7,06.0,0686.9,31.3
2021-07-29T21:10:00Z,00040200,00000000,0003.91,0003.58,0002.10,0001.10,0000.42,0000.57,0001.20,0001.28,0000.87,20.7,26.8,08.4,05.8,0686.9,31.3
2021-07-29T21:11:00Z,00040200,00000000,0004.02,0003.18,0002.06,0000.52,0000.21,0000.40,0000.90,0000.72,0000.69,20.8,26.8,08.3,05.8,0686.9,31.3
2021-07-29T21:12:00Z,00040200,00000000,0004.28,0003.36,0001.79,0000.98,0000.24,0000.41,0000.66,0000.50,0000.68,20.8,26.8,08.3,05.8,0686.9,31.3
2021-07-29T21:13:00Z,00040200,00000000,0005.22,0003.32,0001.89,0001.26,0000.42,0000.19,0000.98,0000.67,0000.18,20.7,26.8,08.3,05.8,0686.9,31.3
2021-07-29T21:14:00Z,00040200,00000000,0003.92,0003.45,0001.82,0000.81,0000.33,0000.21,0000.69,0001.33,0000.54,20.8,26.8,08.3,05.8,0686.9,31.3
2021-07-29T21:15:00Z,00040200,00000000,0004.94,0003.65,0002.13,0000.83,0000.35,0000.36,0001.40,0000.85,0000.66,20.7,26.8,08.2,05.7,0686.9,31.3
2021-07-29T21:16:00Z,00040200,00000000,0005.79,0003.48,0002.09,0000.83,0000.24,0000.28,0000.76,0000.61,0000.72,20.7,26.8,08.2,05.7,0686.9,31.3
2021-07-29T21:17:00Z,00040200,00000000,0005.29,0003.23,0001.98,0001.21,0000.07,0000.46,0000.96,0000.50,0000.78,20.7,26.8,08.3,05.7,0686.9,31.3
2021-07-29T21:18:00Z,00040200,00000000,0004.70,0003.32,0002.00,0001.22,0000.62,0000.26,0000.63,0000.90,0000.59,20.7,26.8,08.2,05.7,0686.9,31.3
2021-07-29T21:19:00Z,00040200,00000000,0005.00,0003.52,0001.85,0001.06,0000.29,0000.38,0001.07,0001.10,0000.26,20.7,26.8,08.3,05.7,0686.9,31.3
2021-07-29T21:20:00Z,00040200,00000000,0004.33,0003.28,0001.72,0000.87,0000.30,0000.34,0000.28,0000.52,0000.52,20.7,26.8,08.3,05.7,0686.9,31.3
2021-07-29T21:21:00Z,00040200,00000000,0005.07,0003.34,0001.91,0000.25,0000.19,0000.50,0000.19,-000.36,-000.09,20.7,26.8,07.9,05.5,0686.9,31.3
2021-07-29T21:22:00Z,00040200,00000000,0005.02,0003.21,0001.83,0000.67,0000.32,0000.37,0000.92,0001.21,0001.16,20.7,26.7,07.8,05.4,0686.9,31.3
2021-07-29T21:23:00Z,00040200,00000000,0005.18,0003.10,0002.26,0000.74,0000.44,0000.13,0001.29,0001.00,0000.76,20.7,26.7,07.9,05.5,0686.9,31.3
2021-07-29T21:24:00Z,00040200,00000000,0004.00,0003.46,0002.09,0000.64,0000.34,0000.39,0000.83,0000.93,0000.31,20.7,26.7,07.9,05.5,0686.9,31.2
2021-07-29T21:25:00Z,00040200,00000000,0004.88,0003.48,0002.16,0000.64,0000.58,0000.40,0000.53,0000.73,0000.85,20.7,26.7,08.0,05.5,0686.9,31.2
2021-07-29T21:26:00Z,00040200,00000000,0004.30,0003.05,0001.89,0001.02,0000.57,0000.41,0000.53,0000.12,-000.26,20.7,26.8,07.7,05.3,0686.9,31.2
2021-07-29T21:27:00Z,00040200,00000000,0005.06,0003.45,0001.85,0000.36,0000.22,0000.39,0001.06,0001.06,0000.79,20.7,26.8,07.6,05.3,0686.9,31.2
2021-07-29T21:28:00Z,00040200,00000000,0004.68,0003.38,0002.02,0000.47,0000.05,0000.33,0000.91,0000.62,0000.85,20.7,26.7,07.7,05.4,0686.9,31.2
2021-07-29T21:29:00Z,00040200,00000000,0004.74,0003.36,0001.69,0001.16,0000.30,0000.22,0001.08,0000.94,0000.26,20.7,26.7,07.7,05.3,0686.9,31.2
2021-07-29T21:30:00Z,00040200,00000000,0003.56,0003.22,0002.08,0000.61,0000.08,0000.22,0000.01,0000.67,0000.73,20.7,26.7,07.6,05.3,0686.9,31.2
2021-07-29T21:31:00Z,00040200,00000000,0004.73,0003.05,0002.08,0000.84,0000.33,0000.47,0001.78,0000.88,0000.58,20.7,26.7,07.6,05.3,0686.9,31.2
2021-07-29T21:32:00Z,00040200,00000000,0004.36,0003.52,0002.15,0000.55,0000.28,0000.50,0000.49,0001.18,0000.75,20.7,26.7,07.8,05.4,0686.9,31.2
2021-07-29T21:33:00Z,00040200,00000000,0004.52,0003.48,0002.05,0001.16,0000.39,0000.53,0000.83,0000.48,0000.49,20.7,26.7,07.8,05.4,0686.9,31.2
2021-07-29T21:34:00Z,00040200,00000000,0004.23,0003.58,0001.85,0000.38,0000.25,0000.45,0001.33,0001.13,0000.97,20.7,26.7,07.7,05.4,0686.9,31.2
2021-07-29T21:35:00Z,00040200,00000000,0004.56,0003.26,0002.40,0000.87,0000.07,0000.75,0001.96,0001.45,0001.46,20.7,26.7,08.0,05.5,0686.9,31.2
2021-07-29T21:36:00Z,00040200,00000000,0005.03,0003.40,0002.17,0000.77,0000.12,0000.46,0000.75,0001.36,0000.87,20.6,26.7,08.4,05.8,0686.9,31.2
2021-07-29T21:37:00Z,00040200,00000000,0004.18,0003.24,0002.25,0000.99,0000.34,0000.62,0001.33,0000.76,0000.68,20.7,26.7,08.3,05.8,0686.9,31.2
2021-07-29T21:38:00Z,00040200,00000000,0004.99,0003.67,0001.94,0001.02,0000.62,0000.37,0000.92,0000.95,0000.46,20.7,26.7,08.4,05.9,0686.9,31.2
2021-07-29T21:39:00Z,00040200,00000000,0003.95,0003.24,0001.96,0000.70,0000.57,0000.22,0000.97,0000.48,0000.85,20.7,26.7,08.4,05.8,0686.9,31.2
2021-07-29T21:40:00Z,00040200,00000000,0004.64,0002.94,0002.01,0001.10,0000.24,0000.15,0000.96,0001.41,0000.34,20.6,26.7,08.3,05.8,0686.9,31.2
2021-07-29T21:41:00Z,00040200,00000000,0005.28,0003.35,0002.03,0000.42,0000.38,0000.52,0000.77,0000.79,0001.09,20.6,26.7,08.4,05.8,0686.9,31.2
2021-07-29T21:42:00Z,00040200,00000000,0004.37,0003.30,0002.11,0000.46,0000.21,0000.67,0000.74,0000.47,0000.52,20.6,26.7,08.3,05.8,0686.9,31.2
2021-07-29T21:43:00Z,00040200,00000000,0004.57,0003.56,0001.87,0000.58,0000.50,0000.36,0000.86,0000.76,0000.09,20.6,26.7,08.3,05.8,0686.9,31.2
2021-07-29T21:44:00Z,00040200,00000000,0004.76,0003.45,0002.23,0000.82,0000.51,0000.29,0000.91,0000.58,0000.94,20.6,26.7,08.3,05.8,0686.9,31.2
2021-07-29T21:45:00Z,00040200,00000000,0003.73,0003.11,0001.87,0000.90,0000.16,0000.27,0000.75,0000.81,0000.56,20.6,26.7,08.2,05.7,0686.9,31.2
2021-07-29T21:46:00Z,00040200,00000000,0004.74,0003.54,0002.20,0001.01,0000.08,0000.17,0001.02,0000.87,0000.46,20.6,26.7,08.3,05.8,0686.9,31.2
2021-07-29T21:47:00Z,00040200,00000000,0004.70,0003.44,0001.76,0000.93,0000.36,0000.44,0000.70,0000.75,0000.25,20.6,26.7,08.3,05.8,0686.9,31.2
2021-07-29T21:48:00Z,00040200,00000000,0004.86,0003.65,0002.09,0000.85,0000.34,0000.60,0000.88,0001.00,0001.10,20.6,26.7,08.3,05.8,0686.9,31.2
2021-07-29T21:49:00Z,00040200,00000000,0005.16,0003.74,0002.25,0000.69,0000.37,0000.49,0001.50,0000.98,0001.04,20.6,26.7,08.4,05.8,0686.9,31.2
2021-07-29T21:50:00Z,00040200,00000000,0004.19,0003.15,0001.63,0001.23,0000.38,0000.49,0000.18,0000.50,0000.22,20.6,26.7,08.4,05.8,0686.9,31.2
2021-07-29T21:51:00Z,00040200,00000000,0005.08,0003.92,0002.25,0000.30,0000.31,0000.02,0001.24,0001.09,0000.65,20.6,26.7,08.3,05.8,0686.9,31.2
2021-07-29T21:52:00Z,00040200,00000000,0004.90,0003.51,0001.99,0001.43,0000.55,0000.42,0000.70,0000.59,0000.29,20.6,26.7,08.3,05.7,0686.9,31.2
2021-07-29T21:53:00Z,00040200,00000000,0003.94,0003.97,0002.21,0001.07,0000.25,0000.57,0001.07,0001.29,0001.22,20.6,26.7,08.3,05.8,0686.9,31.2
2021-07-29T21:54:00Z,00040200,00000000,0004.40,0003.23,0001.90,0000.28,0000.45,0000.71,0000.90,0000.40,0000.35,20.6,26.7,08.3,05.8,0686.9,31.2
2021-07-29T21:55:00Z,00040200,00000000,0004.48,0003.48,0002.11,0000.81,0000.21,0000.37,0000.95,0000.90,0000.75,20.6,26.7,08.4,05.8,0686.9,31.2
2021-07-29T21:56:00Z,00040200,00000000,0004.86,0003.34,0002.36,0001.10,0000.43,0000.64,0000.88,0001.08,0000.65,20.6,26.7,08.3,05.7,0686.9,31.2
2021-07-29T21:57:00Z,00040200,40000000,,,,,,,0000.36,0000.33,0000.35,20.6,26.7,08.2,05.7,0686.8,31.2
2021-07-29T21:58:00Z,00040200,60000000,,,,,,,0000.17,0000.19,0000.13,20.4,26.8,08.4,05.7,0685.9,31.2
2021-07-29T21:59:00Z,00040200,20000000,,,,,,,-000.38,-000.38,-000.13,20.4,26.9,08.4,05.7,0685.9,31.2
